Wind_Speed
18 18 17 16 16 16 15 14 14 13 12 12 12 11 11 11 11 10 10 9 8 8 8 7 7 6 6 6 5 5 4 4 4 3 3 2 2 2 2 2 1 1 1
20 20 19 19 18 18 17 17 16 15 15 14 13 13 13 13 12 12 12 11 11 9 9 9 8 8 7 7 7 6 6 6 5 4 4 3 3 3 3 2 2 2 2
21 21 21 21 20 20 19 19 18 17 17 16 16 15 15 14 14 14 13 13 12 11 10 10 10 9 9 8 8 8 8 7 6 6 5 5 4 4 4 3 3 3 3
23 23 23 22 22 22 21 21 21 20 19 18 18 17 17 16 16 15 15 15 14 13 13 12 12 11 10 10 9 9 9 9 8 8 7 6 6 6 5 5 5 5 4
24 24 24 24 24 23 23 23 23 22 21 21 20 19 19 18 18 18 17 17 16 15 14 14 14 13 12 12 11 11 11 10 10 9 8 8 8 7 7 7 6 6 5
26 26 26 26 26 25 24 24 24 24 23 23 22 22 21 20 20 20 20 19 19 17 17 16 16 15 14 14 13 13 13 12 12 11 10 10 10 9 9 9 8 7 7
28 28 28 28 28 28 27 26 26 26 25 25 24 23 23 22 22 21 21 21 20 20 19 18 17 17 16 16 15 15 14 14 14 13 12 12 11 11 11 10 10 9 8
31 30 30 30 30 30 30 29 29 28 28 27 27 26 25 24 23 23 23 22 22 21 21 19 19 19 18 18 17 16 16 16 15 15 14 13 13 12 12 11 11 11 9
33 33 32 32 32 33 32 32 32 30 29 29 28 28 27 26 25 24 24 24 24 23 22 21 21 21 20 19 19 18 18 17 17 17 16 15 14 13 13 13 12 12 11
35 35 34 34 34 35 35 34 34 33 31 31 30 30 29 29 27 26 26 26 25 25 24 24 23 23 22 22 21 20 20 19 19 18 18 17 16 15 14 14 13 13 13
36 36 36 36 36 36 36 36 36 35 34 33 32 31 31 31 30 29 28 27 26 26 26 25 25 24 24 24 24 23 22 22 21 20 19 19 18 17 16 16 15 15 15
36 37 38 37 38 38 38 38 38 37 36 35 34 33 33 32 32 31 30 29 27 27 27 27 27 27 27 27 26 25 24 23 23 22 22 20 20 19 18 18 17 17 16
38 38 39 38 39 39 39 40 39 39 38 37 36 35 34 33 33 32 32 31 30 29 29 29 29 29 29 28 28 28 27 26 25 24 24 23 22 22 21 20 19 19 18
39 39 39 40 40 40 40 40 40 40 39 39 38 37 36 34 34 34 34 34 34 33 31 31 31 30 30 30 30 30 29 28 28 27 26 25 24 24 23 23 22 21 20
40 40 40 40 40 41 41 41 41 40 40 40 40 39 39 37 36 36 36 36 36 35 34 32 32 32 32 32 31 31 31 31 30 29 28 27 27 26 25 24 24 23 22
39 40 40 40 40 41 41 41 41 41 41 41 40 40 40 39 38 38 38 38 38 38 37 36 34 34 34 33 33 32 32 33 32 31 30 29 28 27 26 26 25 25 24
40 40 40 40 40 40 41 41 42 42 42 42 42 42 41 40 40 39 39 40 40 39 39 38 37 36 36 35 35 35 35 35 34 33 32 31 30 29 28 28 27 27 26
41 41 41 41 40 40 41 42 43 43 43 43 42 42 42 41 41 40 39 40 40 41 40 40 40 39 37 37 37 37 37 36 35 35 34 34 33 32 31 30 29 29 28
42 42 42 42 42 41 41 42 43 44 44 44 43 43 43 42 42 41 41 40 40 40 40 41 40 40 39 39 38 38 38 38 37 37 37 36 35 34 33 32 32 31 30
42 43 43 43 43 43 42 43 44 45 45 46 45 45 45 44 43 43 43 42 42 41 40 40 41 40 40 40 40 40 40 39 39 38 38 37 37 36 36 35 34 33 33
41 43 44 44 44 44 44 44 44 45 46 47 47 47 46 45 45 44 44 44 43 42 41 41 42 42 42 41 42 42 41 41 41 40 39 39 39 38 38 37 37 36 35
42 43 44 44 44 45 45 45 46 46 47 47 48 49 49 48 47 46 46 46 46 44 43 43 43 44 44 44 44 44 43 43 43 42 42 41 40 40 39 39 39 38 37
43 44 45 46 45 46 47 47 47 47 47 48 49 49 50 50 49 48 49 48 48 48 47 47 46 45 45 46 46 46 46 45 44 43 43 43 43 42 42 41 40 40 40
44 45 46 46 46 46 48 49 49 49 49 50 50 50 50 51 51 50 51 51 51 50 49 49 49 48 47 48 48 48 48 47 46 46 45 45 45 45 44 43 42 42 42
46 45 46 47 47 47 48 49 49 50 51 51 52 53 53 52 52 52 53 53 53 54 52 51 50 49 49 49 50 49 49 48 48 48 47 46 46 46 45 45 44 44 44
46 46 46 47 47 47 47 48 49 51 53 53 54 54 53 54 54 53 53 55 55 54 54 54 53 52 52 51 50 50 51 50 49 49 49 48 48 48 47 46 46 46 46
Wind_Direction
243 243 243 242 241 240 239 238 236 238 238 238 235 233 232 232 232 232 234 233 232 230 230 230 228 227 230 229 229 230 229 230 234 240 239 250 258 268 284 288 289 319 320
245 245 244 243 242 239 237 237 239 240 239 239 239 237 236 237 237 236 235 236 236 236 236 234 231 231 233 235 233 233 233 233 238 241 240 246 252 257 264 275 276 294 312
245 245 244 243 243 241 239 239 240 240 241 241 242 242 241 240 240 238 237 238 237 238 239 238 236 233 234 237 238 238 235 233 236 240 242 245 249 253 255 265 270 279 291
245 245 244 243 243 243 243 242 242 242 242 242 243 244 243 242 242 241 240 240 240 240 241 241 239 235 236 238 239 238 238 238 237 239 243 247 249 248 253 261 265 273 279
246 245 244 243 243 244 245 244 243 242 242 242 243 244 244 244 244 244 243 242 243 244 243 243 241 238 238 239 238 237 240 242 238 240 244 247 249 249 254 260 263 267 274
249 247 245 244 244 245 245 245 245 243 243 243 242 243 244 244 244 245 245 244 244 244 244 243 241 240 240 240 240 240 242 243 242 244 246 248 249 251 254 258 261 261 267
250 250 248 246 245 245 244 246 246 245 244 243 243 244 245 245 244 245 246 246 246 245 243 242 241 241 240 240 241 243 244 243 244 245 247 249 251 254 254 255 257 256 260
250 250 250 248 246 245 245 245 245 245 245 245 244 245 245 246 247 247 247 246 247 247 246 244 243 242 242 242 241 242 245 244 244 246 248 250 251 254 253 253 255 253 254
251 250 249 249 247 247 246 246 246 245 244 245 245 245 245 245 247 247 247 246 247 247 246 245 245 244 244 243 242 242 244 245 246 247 248 249 251 252 252 251 252 252 253
252 251 250 249 248 247 247 246 246 245 245 245 245 244 244 245 245 246 246 247 247 247 247 247 246 246 245 245 244 244 245 246 246 247 248 248 248 249 250 249 250 252 253
252 251 252 250 249 248 247 246 246 245 245 244 244 245 245 245 245 245 245 247 248 247 247 247 247 248 248 247 246 245 246 246 247 247 247 247 247 247 248 249 250 252 253
253 252 251 251 249 248 247 246 245 245 244 244 244 244 245 245 245 244 244 245 246 247 247 247 248 248 248 247 247 246 246 246 246 246 246 246 246 247 248 249 251 253 254
253 252 251 251 249 248 247 245 245 245 244 244 244 245 245 245 244 244 243 244 245 246 247 247 248 248 248 247 247 246 247 247 247 247 246 246 247 248 248 248 250 252 253
254 253 251 250 249 248 246 245 244 244 245 244 244 245 245 244 244 244 244 244 245 247 247 246 247 249 248 248 247 246 247 247 247 247 246 246 248 248 249 249 250 251 253
255 254 253 251 250 248 247 246 244 243 243 244 244 245 246 246 245 244 245 245 246 247 247 247 247 248 248 247 247 248 248 247 247 246 246 247 248 248 249 250 250 250 252
254 254 253 252 250 249 248 247 246 246 245 244 244 244 245 245 245 245 245 245 246 247 247 246 246 247 247 247 248 248 248 248 246 246 246 246 247 248 248 250 250 251 253
253 253 252 251 251 250 248 246 245 246 246 245 244 244 245 245 244 245 245 245 246 247 246 247 247 247 247 247 248 247 247 247 246 246 245 245 246 248 249 250 251 252 254
252 251 251 250 250 250 247 246 245 244 244 244 244 244 245 245 244 244 245 245 246 246 247 247 247 247 247 247 248 247 246 246 246 245 244 245 246 247 248 249 251 252 253
252 251 250 250 250 250 248 245 245 244 244 243 244 245 245 244 245 244 245 245 245 246 247 247 247 248 248 247 247 246 245 245 246 246 246 245 246 247 249 250 251 252 253
253 251 249 249 250 249 248 246 245 245 244 244 244 245 245 244 245 245 245 245 245 246 247 247 247 247 248 248 248 246 245 246 246 246 247 246 247 247 249 250 251 252 253
254 252 250 249 249 249 247 245 245 245 245 245 245 245 245 244 245 246 246 246 245 246 248 249 248 248 248 248 248 248 247 247 246 246 247 247 248 248 249 250 252 253 253
254 253 251 250 249 248 247 246 245 246 245 246 245 245 245 246 247 246 246 247 247 247 247 248 248 249 249 249 249 249 249 249 248 248 247 247 248 249 250 251 252 253 254
255 254 252 251 249 248 247 246 247 247 247 246 245 245 245 246 247 246 246 247 248 248 247 248 249 249 249 250 249 249 250 249 248 247 248 248 249 249 251 252 252 253 254
254 254 252 251 250 248 248 247 247 248 248 247 246 245 245 246 247 248 247 247 248 249 249 250 250 251 251 251 250 250 249 249 248 248 248 248 249 250 251 252 254 254 254
254 253 252 251 249 249 248 248 248 247 247 247 247 246 246 247 248 248 247 247 248 249 250 251 251 251 251 250 250 249 249 249 249 249 248 248 250 250 251 252 254 254 254
253 253 252 251 249 248 248 248 248 248 248 247 247 246 247 247 248 248 248 248 249 250 250 251 252 251 251 251 250 249 250 249 249 248 248 249 250 250 251 252 253 254 254
Height
5843 5844 5845 5846 5846 5847 5848 5849 5849 5850 5851 5851 5852 5852 5853 5853 5853 5854 5854 5855 5855 5855 5856 5856 5856 5856 5857 5857 5857 5858 5858 5858 5858 5858 5858 5858 5858 5858 5858 5858 5858 5857 5857
5839 5840 5841 5842 5843 5844 5845 5846 5847 5848 5848 5849 5849 5850 5850 5851 5852 5852 5852 5853 5853 5854 5854 5854 5854 5855 5855 5856 5856 5857 5857 5857 5858 5858 5858 5858 5857 5857 5857 5857 5857 5857 5856
5835 5836 5837 5839 5840 5841 5842 5843 5844 5845 5845 5846 5847 5847 5848 5849 5849 5850 5850 5850 5851 5852 5852 5853 5853 5853 5854 5854 5855 5855 5856 5856 5856 5857 5857 5857 5857 5856 5857 5857 5856 5856 5855
5831 5832 5833 5834 5836 5837 5838 5839 5840 5841 5842 5843 5844 5845 5845 5846 5847 5847 5847 5848 5849 5849 5850 5850 5851 5851 5852 5852 5853 5854 5854 5855 5855 5855 5856 5856 5855 5855 5855 5856 5855 5855 5855
5826 5827 5829 5830 5831 5833 5834 5835 5836 5837 5838 5839 5840 5841 5842 5842 5843 5844 5845 5845 5846 5847 5847 5848 5848 5849 5850 5850 5851 5852 5852 5853 5853 5854 5854 5854 5854 5854 5854 5854 5854 5854 5854
5821 5822 5824 5825 5826 5828 5829 5830 5832 5833 5834 5835 5836 5837 5838 5839 5840 5841 5841 5842 5843 5844 5844 5845 5846 5846 5847 5848 5849 5849 5850 5851 5851 5851 5852 5852 5853 5853 5853 5853 5853 5853 5852
5815 5816 5818 5819 5821 5822 5824 5825 5826 5828 5829 5830 5832 5833 5834 5835 5836 5837 5838 5838 5839 5840 5841 5841 5842 5843 5844 5845 5846 5847 5847 5848 5849 5849 5849 5850 5850 5851 5851 5851 5851 5851 5851
5808 5810 5811 5813 5814 5816 5817 5819 5820 5822 5823 5825 5826 5828 5829 5830 5831 5832 5833 5834 5835 5836 5837 5838 5838 5840 5841 5842 5843 5843 5844 5845 5846 5846 5847 5848 5848 5848 5849 5849 5849 5849 5849
5801 5803 5804 5806 5808 5809 5811 5812 5814 5815 5817 5819 5821 5822 5824 5825 5826 5827 5828 5829 5830 5831 5832 5833 5834 5835 5837 5838 5839 5840 5841 5842 5843 5843 5844 5845 5845 5846 5846 5846 5846 5847 5847
5793 5795 5797 5798 5800 5802 5803 5805 5807 5808 5810 5812 5814 5816 5818 5819 5820 5822 5823 5824 5825 5826 5827 5829 5830 5831 5832 5834 5835 5836 5837 5838 5839 5840 5841 5841 5842 5843 5843 5843 5844 5844 5844
5785 5787 5789 5790 5792 5794 5795 5797 5799 5801 5803 5805 5807 5809 5811 5813 5814 5816 5818 5819 5820 5821 5822 5824 5825 5826 5828 5829 5830 5832 5833 5834 5835 5836 5837 5838 5839 5839 5840 5840 5841 5841 5841
5776 5778 5779 5781 5783 5785 5787 5789 5791 5793 5795 5797 5799 5801 5804 5806 5808 5809 5811 5813 5814 5815 5816 5818 5819 5821 5822 5824 5825 5827 5828 5829 5831 5832 5833 5834 5835 5836 5836 5837 5838 5838 5838
5767 5768 5770 5771 5773 5775 5778 5780 5782 5784 5787 5789 5791 5793 5795 5798 5800 5802 5804 5806 5808 5809 5810 5812 5813 5815 5816 5818 5820 5821 5823 5824 5826 5827 5828 5830 5831 5832 5832 5833 5834 5834 5835
5758 5759 5760 5762 5763 5766 5768 5771 5773 5776 5778 5780 5783 5785 5788 5790 5793 5795 5797 5799 5801 5803 5804 5805 5807 5809 5810 5812 5814 5815 5817 5819 5820 5822 5823 5825 5826 5827 5828 5829 5829 5830 5831
5747 5749 5750 5752 5754 5756 5758 5761 5764 5766 5769 5771 5774 5777 5779 5782 5785 5787 5789 5792 5793 5795 5797 5799 5800 5802 5804 5806 5807 5809 5811 5813 5814 5816 5818 5819 5820 5822 5823 5824 5825 5826 5826
5737 5739 5740 5742 5744 5746 5748 5751 5754 5757 5760 5762 5765 5768 5771 5774 5776 5779 5781 5783 5786 5788 5790 5791 5793 5795 5797 5799 5801 5802 5805 5806 5808 5810 5812 5813 5815 5816 5818 5819 5820 5821 5822
5727 5728 5730 5732 5734 5736 5738 5741 5744 5747 5749 5753 5756 5759 5762 5765 5768 5770 5773 5775 5777 5779 5782 5784 5785 5788 5790 5792 5794 5795 5797 5799 5801 5803 5805 5807 5808 5810 5812 5813 5814 5815 5816
5716 5718 5720 5722 5724 5726 5729 5731 5734 5737 5739 5742 5746 5749 5752 5755 5758 5761 5764 5766 5768 5770 5773 5775 5777 5779 5782 5784 5786 5787 5789 5792 5794 5796 5798 5800 5802 5803 5805 5807 5808 5809 5810
5705 5707 5709 5712 5714 5716 5719 5721 5724 5727 5730 5733 5736 5739 5742 5745 5748 5751 5754 5756 5758 5761 5763 5766 5768 5770 5773 5775 5777 5779 5781 5783 5786 5788 5790 5792 5794 5796 5798 5799 5801 5803 5804
5694 5696 5698 5701 5703 5705 5708 5711 5714 5716 5719 5722 5725 5729 5732 5735 5738 5741 5744 5747 5749 5751 5754 5757 5759 5761 5764 5766 5768 5770 5773 5775 5777 5780 5782 5784 5786 5788 5790 5792 5793 5795 5797
5683 5684 5687 5689 5692 5694 5697 5700 5703 5706 5709 5712 5715 5718 5721 5725 5728 5731 5734 5737 5739 5742 5744 5747 5749 5752 5754 5757 5759 5761 5763 5766 5768 5771 5773 5776 5778 5780 5782 5784 5785 5787 5789
5672 5673 5675 5678 5680 5683 5686 5689 5692 5695 5698 5701 5704 5707 5710 5714 5717 5720 5723 5726 5728 5731 5734 5737 5739 5742 5744 5747 5749 5751 5753 5756 5758 5761 5764 5766 5769 5771 5773 5775 5777 5779 5780
5660 5662 5664 5666 5669 5671 5674 5677 5680 5683 5686 5690 5693 5696 5699 5702 5706 5709 5712 5715 5717 5720 5723 5726 5728 5731 5733 5736 5738 5741 5743 5746 5749 5751 5754 5756 5759 5761 5764 5766 5768 5769 5771
5648 5650 5651 5654 5657 5659 5662 5665 5669 5672 5675 5677 5681 5684 5688 5690 5693 5697 5700 5703 5706 5708 5711 5714 5716 5719 5722 5724 5726 5729 5732 5735 5738 5740 5743 5746 5748 5751 5753 5756 5758 5760 5761
5636 5638 5639 5641 5644 5647 5650 5653 5656 5659 5662 5665 5668 5672 5675 5678 5681 5684 5687 5691 5693 5696 5698 5701 5703 5707 5710 5712 5714 5717 5720 5723 5725 5729 5732 5735 5737 5740 5742 5745 5747 5749 5751
5623 5625 5627 5629 5631 5634 5637 5640 5643 5646 5649 5652 5655 5658 5662 5665 5668 5671 5674 5677 5680 5682 5685 5688 5690 5693 5696 5699 5702 5704 5707 5711 5714 5717 5720 5723 5726 5729 5731 5733 5735 5738 5740